Waarnemingen

Advertentie
Mijn weer
Bastia, Frankrijk (7790): temperatuur & dauwpunt: 15.02.2018 02:00:00 - 21.02.2018 02:00:00 (CET)Bastia, Frankrijk (7790): temperatuur 5cm: 15.02.2018 02:00:00 - 21.02.2018 02:00:00 (CET)Bastia, Frankrijk (7790): temperatuur -20cm & temperatuur -100cm: 15.02.2018 02:00:00 - 21.02.2018 02:00:00 (CET)Bastia, Frankrijk (7790): windsnelheid & windstoten: 15.02.2018 02:00:00 - 21.02.2018 02:00:00 (CET)Bastia, Frankrijk (7790): windrichting: 15.02.2018 02:00:00 - 21.02.2018 02:00:00 (CET)Bastia, Frankrijk (7790): luchtdruk: 15.02.2018 02:00:00 - 21.02.2018 02:00:00 (CET)Bastia, Frankrijk (7790): zicht: 15.02.2018 02:00:00 - 21.02.2018 02:00:00 (CET)Bastia, Frankrijk (7790): Zonneschijnduur: 15.02.2018 02:00:00 - 21.02.2018 02:00:00 (CET)Bastia, Frankrijk (7790): neerslag: 15.02.2018 02:00:00 - 21.02.2018 02:00:00 (CET)
Datum & Tijd tt [°C] td [°C] tt 5cm [°C] tt -20cm [°C] tt -100cm [°C] ff [km/u] ff [kn] fx [km/u] fx [kn] dd ppp [hPa] vv [km] sd [min] rr [mm]
21.02.2018 02:00:00 6,9 2,2 5,4 15,3 11,6 9 5 21 11 N 1005,4 20 - 0,0
21.02.2018 01:00:00 7,0 1,5 6,1 16,1 11,6 14 8 26 14 N 1005,5 20 - 0,0
21.02.2018 00:00:00 7,3 2,0 6,7 16,1 11,6 14 8 29 16 N 1005,9 20 - 0,0
20.02.2018 23:00:00 7,5 2,2 5,7 16,6 11,6 11 6 19 10 N 1005,9 20 - 0,0
20.02.2018 22:00:00 7,6 1,9 4,9 16,9 11,6 10 5 19 10 NO 1006,0 20 - 0,0
20.02.2018 21:00:00 6,6 1,3 3,5 16,5 11,6 7 4 14 7 N 1006,0 30 - 0,0
20.02.2018 20:00:00 6,5 1,0 4,7 16,4 11,6 7 4 12 7 NNW 1006,0 41 - 0,0
20.02.2018 19:00:00 7,3 1,8 5,0 16,4 11,6 7 4 13 7 NNW 1006,1 26 - 0,0
20.02.2018 18:00:00 8,2 0,9 7,2 16,5 11,6 10 5 16 9 NO 1006,0 45 - 0,0
20.02.2018 17:00:00 8,8 1,5 8,5 16,8 11,6 4 2 18 10 NO 1005,8 53 - 0,0
20.02.2018 16:00:00 9,0 1,2 9,7 16,9 11,6 15 8 20 11 NO 1005,9 53 - 0,0
20.02.2018 15:00:00 8,9 1,3 9,6 17,5 11,6 12 7 19 10 NO 1006,2 57 - 0,0
20.02.2018 14:00:00 8,6 3,0 9,3 17,1 11,6 8 5 17 9 N 1006,6 46 - 0,0
20.02.2018 13:00:00 8,4 3,2 7,7 16,6 11,6 13 7 23 12 NNO 1007,3 52 - 0,0
20.02.2018 12:00:00 7,7 4,1 6,7 17,1 11,6 11 6 20 11 N 1008,0 32 - 0,0
20.02.2018 11:00:00 7,3 4,8 6,7 16,8 11,6 9 5 18 10 N 1008,3 24 - 0,0
20.02.2018 10:00:00 7,3 5,1 6,9 17,2 11,6 9 5 16 9 NNW 1008,4 20 - 0,0
20.02.2018 09:00:00 7,1 6,0 6,6 17,5 11,6 11 6 16 9 N 1008,7 18 - 0,0
20.02.2018 08:00:00 7,0 5,9 5,1 17,6 11,6 9 5 13 7 N 1008,7 8 - 0,4
20.02.2018 07:00:00 5,5 3,2 4,8 17,9 11,6 0 0 11 6 N 1008,4 20 - 0,0
20.02.2018 06:00:00 5,5 2,1 4,5 18,0 11,6 8 4 14 8 W 1008,6 20 - 0,0
20.02.2018 05:00:00 5,5 1,8 3,9 18,2 11,6 10 5 16 8 W 1009,2 20 - 0,0
20.02.2018 04:00:00 5,6 1,9 4,6 18,3 11,6 9 5 14 7 W 1009,4 20 - 0,0
20.02.2018 03:00:00 5,8 2,3 4,7 18,5 11,6 8 4 13 7 W 1009,9 20 - 0,0
20.02.2018 02:00:00 5,5 2,3 1,5 18,3 11,6 8 4 13 7 W 1010,6 20 - 0,0
20.02.2018 01:00:00 4,6 1,8 1,6 18,2 11,6 7 4 13 7 W 1011,1 20 - 0,0
20.02.2018 00:00:00 5,1 2,1 2,5 18,1 11,6 8 5 14 7 W 1011,5 20 - 0,0
19.02.2018 23:00:00 5,6 2,1 1,1 17,9 11,5 8 4 16 9 W 1011,9 43 - 0,0
19.02.2018 22:00:00 6,0 2,3 1,3 17,5 11,6 5 3 10 5 NNW 1012,4 28 - 0,0
19.02.2018 21:00:00 6,1 2,4 1,0 17,5 11,6 6 4 12 6 WNW 1012,7 15 - 0,0
19.02.2018 20:00:00 6,7 3,1 3,8 17,5 11,5 6 3 22 12 NW 1012,8 20 - 0,0
19.02.2018 19:00:00 8,1 3,2 6,6 17,4 11,6 11 6 20 11 NNO 1012,7 20 - 0,0
19.02.2018 18:00:00 9,8 4,0 9,0 17,6 11,5 9 5 17 9 N 1012,8 60 - 0,0
19.02.2018 17:00:00 10,0 4,8 9,8 17,7 11,5 8 5 21 11 NNO 1013,0 60 - 0,0
19.02.2018 16:00:00 11,0 4,2 11,5 17,5 11,5 16 8 23 12 NNO 1013,1 60 - 0,0
19.02.2018 15:00:00 11,1 4,5 11,7 16,4 11,5 16 9 23 13 NO 1013,5 53 - 0,0
19.02.2018 14:00:00 10,5 4,0 11,8 16,4 11,5 15 8 27 15 NO 1014,1 60 - 0,0
19.02.2018 13:00:00 10,4 4,3 10,7 15,2 11,5 15 8 23 13 NO 1014,8 60 - 0,0
19.02.2018 12:00:00 10,2 4,6 10,5 18,2 11,5 13 7 25 13 NO 1015,1 58 - 0,0
19.02.2018 11:00:00 9,4 5,0 10,1 15,7 11,5 9 5 26 14 N 1015,4 60 - 0,0
19.02.2018 10:00:00 9,9 5,1 8,9 15,6 11,5 14 7 32 17 NO 1015,5 60 - 0,0
19.02.2018 09:00:00 9,0 5,0 8,3 17,1 11,5 19 10 31 17 NO 1015,7 60 0 0,0
19.02.2018 08:00:00 8,7 5,3 7,9 16,4 11,5 17 9 24 13 NNO 1015,7 60 0 0,0
19.02.2018 07:00:00 8,5 5,2 7,8 16,5 11,5 5 3 22 12 NNO 1015,4 60 0 0,0
19.02.2018 06:00:00 8,5 4,9 7,6 15,5 11,5 12 7 19 10 N 1015,2 60 0 0,0
19.02.2018 05:00:00 8,5 4,9 7,3 16,6 11,5 10 5 27 15 NNW 1015,2 60 0 0,0
19.02.2018 04:00:00 8,3 4,9 7,3 16,4 11,5 13 7 24 13 N 1015,1 60 0 0,0
19.02.2018 03:00:00 8,4 4,6 6,9 15,8 11,5 12 7 29 16 N 1015,2 60 0 0,0
19.02.2018 02:00:00 8,4 4,4 7,1 15,7 11,4 12 6 20 11 N 1015,8 60 0 0,0
19.02.2018 01:00:00 8,8 4,8 6,6 16,2 11,4 14 8 26 14 N 1016,0 60 0 0,0
19.02.2018 00:00:00 8,1 4,5 6,7 15,7 11,4 14 7 22 12 N 1016,4 60 0 0,0
18.02.2018 23:00:00 8,4 5,0 6,9 15,5 11,4 11 6 27 14 NNW 1016,2 60 0 0,0
18.02.2018 22:00:00 8,9 5,3 7,6 17,0 11,4 18 10 26 14 N 1016,3 60 0 0,0
18.02.2018 21:00:00 9,1 6,5 7,9 16,1 11,4 15 8 29 15 N 1016,1 60 0 0,0
18.02.2018 20:00:00 9,8 7,9 8,7 16,7 11,4 18 10 42 23 N 1015,8 60 0 1,2
18.02.2018 19:00:00 10,9 6,2 9,7 16,9 11,4 14 8 29 15 NNO 1015,0 25 0 0,0
18.02.2018 18:00:00 11,9 6,4 10,9 17,7 11,4 13 7 33 18 N 1014,3 26 13 0,0
18.02.2018 17:00:00 12,8 6,6 15,0 17,2 11,4 16 8 31 17 N 1013,6 28 60 0,0
18.02.2018 16:00:00 13,8 6,6 15,0 16,0 11,4 20 11 34 18 N 1013,2 23 33 0,0
18.02.2018 15:00:00 13,8 7,3 14,3 15,3 11,4 22 12 39 21 NNW 1013,0 38 3 0,0
18.02.2018 14:00:00 14,2 7,5 14,8 15,6 11,4 21 11 39 21 N 1013,0 51 14 0,0
18.02.2018 13:00:00 15,0 7,0 18,6 16,8 11,4 23 12 40 21 N 1013,4 45 56 0,0
18.02.2018 12:00:00 14,4 7,0 16,5 16,4 11,3 22 12 42 23 NNW 1013,8 49 60 0,0
18.02.2018 11:00:00 13,2 7,4 14,5 17,1 11,3 27 14 40 21 NNW 1013,9 53 56 0,0
18.02.2018 10:00:00 12,5 6,7 12,9 17,7 11,3 22 12 34 19 N 1013,7 51 53 0,0
18.02.2018 09:00:00 13,0 6,6 8,5 17,3 11,3 5 3 16 9 OZO 1013,5 50 58 0,0
18.02.2018 08:00:00 9,1 4,9 3,2 17,6 11,3 11 6 18 10 WZW 1013,3 54 22 0,0
18.02.2018 07:00:00 7,7 6,6 3,6 17,6 11,3 0 0 18 10 N 1013,2 45 0 0,2
18.02.2018 06:00:00 9,4 8,3 5,4 17,5 11,3 5 3 13 7 NNW 1013,2 59 0 0,0
18.02.2018 05:00:00 9,5 8,9 5,2 17,3 11,3 9 5 14 7 WNW 1013,5 20 0 0,0
18.02.2018 04:00:00 10,0 9,4 8,8 17,1 11,3 7 4 11 6 NNW 1014,1 20 0 0,0
18.02.2018 03:00:00 10,5 9,9 8,8 16,9 11,3 3 2 9 5 W 1014,5 16 0 0,0
18.02.2018 02:00:00 11,0 10,5 8,6 17,3 11,3 8 5 11 6 O 1015,0 10 0 0,0
18.02.2018 01:00:00 11,0 10,5 8,5 17,1 11,3 4 2 7 4 N 1015,6 7 0 0,0
18.02.2018 00:00:00 11,2 10,7 9,8 17,7 11,3 3 2 8 4 N 1016,3 6 0 0,0
17.02.2018 23:00:00 11,5 11,0 10,4 17,3 11,3 6 3 8 4 ONO 1016,7 6 0 0,0
17.02.2018 22:00:00 11,3 10,7 10,3 17,7 11,3 0 0 7 4 N 1016,9 7 0 0,0
17.02.2018 21:00:00 11,4 10,6 10,7 17,9 11,3 6 3 10 5 ZW 1017,2 8 0 0,0
17.02.2018 20:00:00 11,9 11,0 10,0 17,8 11,3 3 2 6 3 Z 1017,8 7 0 0,0
17.02.2018 19:00:00 12,6 11,7 9,9 17,9 11,3 0 0 4 2 N 1018,3 8 0 0,0
17.02.2018 18:00:00 13,0 11,7 10,8 17,7 11,3 2 1 5 3 ZZO 1018,4 15 0 0,0
17.02.2018 17:00:00 13,6 12,2 13,2 17,6 11,3 3 2 7 4 Z 1018,5 19 0 0,2
17.02.2018 16:00:00 13,7 11,7 13,2 17,0 11,3 4 2 14 7 ZO 1018,9 9 0 0,2
17.02.2018 15:00:00 13,9 11,6 14,3 17,1 11,2 10 5 20 11 ZZO 1018,9 57 0 0,0
17.02.2018 14:00:00 15,0 11,9 16,4 16,9 11,2 13 7 21 11 ZO 1019,2 59 34 0,0
17.02.2018 13:00:00 16,2 11,8 19,0 17,6 11,2 12 7 19 10 ZO 1019,9 58 52 0,0
17.02.2018 12:00:00 15,8 11,0 18,0 16,9 11,2 12 6 21 11 ZZO 1020,5 60 55 0,0
17.02.2018 11:00:00 14,7 10,7 16,0 16,5 11,3 9 5 16 9 Z 1021,0 54 51 0,0
17.02.2018 10:00:00 12,9 9,9 12,6 16,5 11,2 11 6 16 9 Z 1021,4 58 27 0,0
17.02.2018 09:00:00 10,9 9,7 9,6 16,4 11,2 2 1 7 4 ZZW 1022,0 41 0 0,0
17.02.2018 08:00:00 9,7 8,8 8,4 16,3 11,2 6 3 7 4 ZW 1022,3 29 1 0,0
17.02.2018 07:00:00 9,8 8,7 8,6 16,3 11,3 0 0 9 5 N 1022,4 32 0 0,0
17.02.2018 06:00:00 10,2 9,1 9,5 16,3 11,2 4 2 8 5 ZW 1022,7 29 0 0,2
17.02.2018 05:00:00 10,6 8,9 9,8 16,3 11,2 3 2 6 3 WNW 1022,7 32 0 0,0
17.02.2018 04:00:00 10,4 8,8 9,8 16,3 11,2 4 2 6 3 W 1023,3 40 0 0,0
17.02.2018 03:00:00 10,5 8,9 9,8 16,1 11,2 4 2 6 4 W 1023,5 28 0 0,0
17.02.2018 02:00:00 10,4 8,8 9,7 16,1 11,2 0 0 5 3 N 1023,9 15 0 0,0
17.02.2018 01:00:00 10,8 8,9 10,1 16,1 11,2 3 2 8 5 NNW 1023,9 20 0 0,0
17.02.2018 00:00:00 10,8 9,2 10,0 16,2 11,2 5 3 7 4 NNW 1023,7 11 0 0,0
16.02.2018 23:00:00 11,1 9,0 10,1 15,9 11,2 4 2 8 5 ZZO 1023,8 40 0 0,0
16.02.2018 22:00:00 11,0 8,9 10,0 15,7 11,2 3 1 5 3 ZZW 1023,9 26 0 0,0
16.02.2018 21:00:00 11,2 9,3 10,2 15,4 11,2 2 1 4 2 ZZO 1023,8 32 0 0,0
16.02.2018 20:00:00 11,3 9,2 10,3 15,4 11,2 0 0 5 3 N 1023,9 44 0 0,0
16.02.2018 19:00:00 11,5 9,2 10,8 15,0 11,3 3 2 13 7 ZZO 1024,0 35 0 0,0
16.02.2018 18:00:00 11,7 9,1 11,2 15,0 11,3 8 4 17 9 ZZO 1023,5 60 0 0,0
16.02.2018 17:00:00 12,2 9,0 12,3 14,9 11,3 9 5 21 12 Z 1023,4 60 0 0,0
16.02.2018 16:00:00 12,6 8,7 13,5 14,8 11,2 12 7 27 14 Z 1023,5 60 0 0,0
16.02.2018 15:00:00 13,0 8,9 14,5 14,1 11,2 19 10 29 16 Z 1023,3 56 8 0,0
16.02.2018 14:00:00 14,3 9,1 17,4 14,3 11,2 18 10 28 15 Z 1023,6 45 60 0,0
16.02.2018 13:00:00 14,5 9,1 19,5 14,1 11,2 16 9 24 13 Z 1024,2 54 60 0,0
16.02.2018 12:00:00 14,2 7,3 18,7 14,9 11,3 7 4 13 7 ZO 1024,6 59 60 0,0
16.02.2018 11:00:00 13,5 6,6 17,2 15,5 11,2 3 2 8 4 O 1024,8 57 60 0,0
16.02.2018 10:00:00 11,4 5,7 10,9 15,3 11,3 4 2 19 10 WZW 1024,6 60 8 0,0
16.02.2018 09:00:00 10,4 4,3 9,2 15,3 11,3 11 6 19 10 W 1024,2 60 0 0,0
16.02.2018 08:00:00 9,2 4,6 8,5 15,3 11,3 8 4 21 11 WNW 1024,3 56 0 0,0
16.02.2018 07:00:00 9,3 3,9 8,7 15,3 11,3 3 1 21 12 WZW 1023,8 60 0 0,0
16.02.2018 06:00:00 9,3 3,5 8,4 15,3 11,3 11 6 21 12 W 1023,9 60 0 0,0
16.02.2018 05:00:00 9,1 3,7 8,5 15,2 11,2 11 6 18 10 WZW 1023,9 60 0 0,0
16.02.2018 04:00:00 9,1 3,7 8,4 15,2 11,3 8 4 19 11 W 1023,9 60 0 0,0
16.02.2018 03:00:00 9,0 4,0 7,8 15,2 11,3 9 5 17 9 W 1024,0 54 0 0,0
16.02.2018 02:00:00 8,5 4,7 7,5 15,2 11,3 7 4 9 5 WNW 1024,3 44 0 0,0
16.02.2018 01:00:00 8,2 5,0 7,6 15,1 11,3 3 2 6 4 W 1024,6 38 0 0,0
16.02.2018 00:00:00 8,1 4,9 7,5 15,0 11,3 4 2 8 5 WZW 1024,5 46 0 0,0
15.02.2018 23:00:00 8,1 4,9 7,6 15,0 11,3 4 2 7 4 W 1024,3 41 0 0,0
15.02.2018 22:00:00 8,0 4,8 7,4 15,1 11,3 5 3 7 4 ZW 1024,2 36 0 0,0
15.02.2018 21:00:00 8,4 5,3 7,4 15,2 11,3 3 2 4 2 WZW 1024,1 16 0 0,0
15.02.2018 20:00:00 9,2 4,6 7,7 15,0 11,3 3 2 6 3 NNW 1023,9 20 0 0,0
15.02.2018 19:00:00 9,3 3,5 7,9 14,9 11,3 2 1 10 5 W 1023,5 47 0 0,0
15.02.2018 18:00:00 9,6 3,8 8,9 15,1 11,3 6 4 13 7 Z 1022,9 49 1 0,0
15.02.2018 17:00:00 9,9 3,6 9,8 15,1 11,3 6 4 18 10 Z 1022,7 15 0 0,0
15.02.2018 16:00:00 10,5 3,7 11,5 15,1 11,3 15 8 21 11 Z 1022,6 48 9 0,0
15.02.2018 15:00:00 10,4 3,7 11,8 15,1 11,3 13 7 25 14 Z 1022,9 54 6 0,0
15.02.2018 14:00:00 10,8 3,6 13,7 15,2 11,3 16 8 29 16 ZZO 1022,8 53 56 0,0
15.02.2018 13:00:00 10,6 2,9 14,0 15,2 11,3 16 9 27 15 ZZO 1023,0 60 50 0,0
15.02.2018 12:00:00 10,5 3,3 14,8 15,3 11,3 16 9 24 13 ZZO 1023,4 52 60 0,0
15.02.2018 11:00:00 10,7 3,5 14,6 15,3 11,4 5 3 16 8 ZW 1023,2 41 60 0,0
15.02.2018 10:00:00 9,1 2,2 9,7 15,0 11,4 10 5 18 10 WZW 1023,0 55 60 0,0
15.02.2018 09:00:00 6,0 0,1 4,6 15,0 11,3 13 7 21 12 W 1022,2 54 60 0,0
15.02.2018 08:00:00 4,2 -0,8 2,5 15,1 11,3 16 9 23 12 W 1021,7 56 11 0,0
15.02.2018 07:00:00 3,6 -1,0 2,4 15,1 11,4 0 0 24 13 N 1021,2 20 0 0,0
15.02.2018 06:00:00 3,9 -0,9 2,0 15,2 11,4 13 7 22 12 W 1020,7 20 0 0,0
15.02.2018 05:00:00 4,2 -0,6 2,2 15,2 11,3 14 7 21 11 W 1020,2 20 0 0,0
15.02.2018 04:00:00 4,5 -0,7 2,2 15,3 11,4 15 8 27 15 W 1019,7 20 0 0,0
15.02.2018 03:00:00 3,6 -0,6 1,1 15,3 11,4 16 8 24 13 W 1019,6 20 0 0,0
15.02.2018 02:00:00 2,9 -0,6 -0,2 15,4 11,4 13 7 19 11 W 1019,6 20 0 0,0

tt = temperatuur
td = dauwpunt
tt 5cm = temperatuur 5cm
tt -20cm = temperatuur -20cm
tt -100cm = temperatuur -100cm
ff = windsnelheid
fx = windstoten
dd = windrichting
ppp = luchtdruk
vv = zicht
sd = Zonneschijnduur
rr = neerslag

Weerstations in de omgeving